K2MST Weather Reports


time (UTC)temp
C
wind
direction
speed
KPH
gust
KPH
rain 1hr
cm
rain 24hr
cm
rain mn
cm
humidity
%
barometer
mb
20260903100541 21 135 1.6 3.2 0.00 5.08 0.00 88 1010.8
20260903095521 21 158 1.6 3.2 0.00 5.08 0.00 88 1010.9
20260903094522 21 158 1.6 4.8 0.00 5.08 0.00 88 1010.9
20260903093521 21 158 3.2 6.4 0.00 5.08 0.00 88 1011.0
20260903092521 21 0.0 0.0 0.00 5.08 0.00 88 1011.0
20260903091522 21 0.0 3.2 0.00 5.08 0.00 88 1010.9
20260903090521 21 0.0 1.6 0.00 5.08 0.00 88 1010.9
20260903085521 21 158 1.6 6.4 0.00 5.08 0.00 88 1010.7
20260903084521 21 0.0 4.8 0.00 5.08 0.00 88 1010.8
20260903083521 21 135 1.6 4.8 0.00 5.08 0.00 87 1010.8
20260903082521 21 135 1.6 4.8 0.00 5.08 0.00 86 1010.9
20260903081541 21 180 4.8 11.3 0.00 5.08 0.00 86 1010.7
20260903080521 21 0.0 1.6 0.00 5.08 0.00 87 1010.9
20260903075601 21 0.0 4.8 0.00 5.08 0.00 87 1011.0
20260903074521 21 0.0 1.6 0.00 5.08 0.00 87 1010.9
20260903073521 21 158 1.6 3.2 0.00 5.08 0.00 88 1011.1
20260903072541 21 225 3.2 6.4 0.00 5.08 0.00 88 1011.2
20260903071521 21 158 1.6 4.8 0.00 5.08 0.00 89 1011.2
20260903070520 20 158 1.6 4.8 0.00 5.08 0.00 89 1011.3
20260903065520 20 135 1.6 3.2 0.00 5.08 0.00 90 1011.3
20260903064521 20 180 4.8 8.0 0.00 5.08 0.00 90 1011.1
20260903063541 20 158 1.6 4.8 0.00 5.08 0.00 90 1011.1
20260903062522 20 0.0 0.0 0.00 5.08 0.00 90 1011.0
20260903061520 20 0.0 3.2 0.00 5.08 0.00 90 1011.0
20260903060521 20 0.0 0.0 0.00 5.08 0.00 90 1011.1
20260903055521 20 158 1.6 4.8 0.00 5.08 0.00 90 1010.9
20260903054520 20 158 3.2 8.0 0.00 5.08 0.00 90 1011.0
20260903053522 20 0.0 0.0 0.00 5.08 0.00 89 1011.0
20260903052520 20 0.0 0.0 0.00 5.08 0.00 89 1010.9
20260903051520 20 0.0 0.0 0.00 5.08 0.00 89 1010.9
20260903050520 20 0.0 0.0 0.00 5.08 0.00 88 1010.7
20260903045520 20 0.0 0.0 0.00 5.08 0.00 88 1010.9
20260903044520 20 0.0 0.0 0.00 5.08 0.00 88 1010.7
20260903043520 20 0.0 1.6 0.00 5.08 0.00 88 1010.5
20260903042520 20 0.0 1.6 0.00 5.08 0.00 88 1010.7
20260903041520 21 135 3.2 11.3 0.00 5.08 0.00 88 1010.9
20260903040520 21 158 3.2 6.4 0.00 5.08 0.00 88 1011.0
20260903035520 20 180 3.2 9.7 0.00 5.08 5.08 89 1011.5
20260903034520 20 180 3.2 14.5 0.00 5.08 5.08 89 1011.4
20260903033520 20 45 1.6 6.4 0.05 5.08 5.08 89 1011.4
20260903032520 20 0 1.6 3.2 0.05 5.08 5.08 89 1011.4
20260903031521 20 180 9.7 19.3 0.08 5.08 5.08 89 1010.5
20260903030520 20 158 16.1 29.0 0.08 5.08 5.08 89 1009.6
20260903025520 20 203 14.5 24.1 0.08 5.08 5.08 89 1009.8
20260903024540 20 180 11.3 19.3 0.13 5.08 5.08 89 1010.2
20260903023520 21 180 14.5 22.5 0.08 5.03 5.03 88 1010.3
20260903022520 21 180 11.3 20.9 0.08 5.03 5.03 88 1011.0
20260903021520 21 180 14.5 25.7 0.08 5.00 5.00 88 1010.9
20260903020600 21 180 17.7 37.0 0.15 5.00 5.00 87 1010.4
20260903015542 22 203 20.9 33.8 0.20 5.00 5.00 86 1011.2
20260903014520 22 203 11.3 22.5 0.18 4.95 4.95 88 1012.0
20260903013521 22 180 22.5 33.8 0.18 4.95 4.95 88 1011.6
20260903012520 22 158 22.5 30.6 0.18 4.95 4.95 88 1011.1
20260903011520 23 158 9.7 16.1 0.15 4.93 4.93 87 1011.7
20260903010520 23 180 6.4 12.9 0.08 4.85 4.85 85 1012.4
20260903005520 23 180 6.4 16.1 0.03 4.80 4.80 84 1012.9
20260903004522 23 180 11.3 19.3 0.00 4.78 4.78 83 1012.3
20260903003520 23 158 11.3 19.3 0.00 4.78 4.78 83 1011.4
20260903002520 23 180 11.3 24.1 0.00 4.78 4.78 83 1011.3
20260903001520 23 158 12.9 25.7 0.00 4.78 4.78 83 1011.1
20260903000519 23 180 20.9 37.0 0.00 4.78 4.78 83 1011.2
20260902235539 23 180 19.3 30.6 0.00 4.78 4.78 83 1010.7
20260902234521 23 158 17.7 29.0 0.00 4.78 4.78 83 1010.8
20260902233521 24 180 20.9 37.0 0.00 4.78 4.78 82 1010.8
20260902232522 24 158 17.7 38.6 0.00 4.78 4.78 82 1011.0
20260902231522 24 180 24.1 48.3 0.00 4.78 4.78 81 1011.0
20260902230542 25 203 16.1 33.8 0.00 4.78 4.78 81 1010.8
20260902225541 25 180 14.5 32.2 0.00 4.78 4.78 81 1010.6
20260902224521 25 180 16.1 25.7 0.00 4.78 4.78 80 1010.3
20260902223521 25 158 12.9 25.7 0.00 4.78 4.78 79 1010.4
20260902222542 25 180 17.7 29.0 0.00 4.78 4.78 79 1010.4
20260902221521 26 158 16.1 22.5 0.00 4.78 4.78 78 1010.2
20260902220521 26 158 12.9 24.1 0.00 4.78 4.78 77 1010.6
20260902215521 26 158 11.3 20.9 0.00 4.78 4.78 76 1011.5
20260902214521 26 180 11.3 20.9 0.00 4.78 4.78 75 1012.1
20260902213521 26 158 14.5 20.9 0.00 4.78 4.78 75 1012.5
20260902212521 26 180 11.3 17.7 0.00 4.78 4.78 75 1012.5
20260902211521 27 158 8.0 19.3 0.00 4.78 4.78 75 1012.9
20260902210521 27 180 8.0 14.5 0.00 4.78 4.78 75 1012.8
20260902205521 27 180 11.3 20.9 0.00 4.78 4.78 73 1012.7
20260902204521 28 180 11.3 19.3 0.00 4.78 4.78 71 1012.7
20260902203541 28 180 11.3 20.9 0.00 4.78 4.78 72 1012.7
20260902202520 28 180 16.1 25.7 0.00 4.78 4.78 71 1012.8
20260902201541 27 203 16.1 29.0 0.00 4.78 4.78 71 1012.8
20260902200521 27 180 16.1 27.4 0.00 4.78 4.78 72 1012.5
20260902195522 28 180 20.9 30.6 0.00 4.78 4.78 71 1012.3
20260902194521 27 158 17.7 30.6 0.00 4.78 4.78 71 1012.4
20260902193520 28 180 16.1 22.5 0.00 4.78 4.78 70 1012.4
20260902192521 28 180 19.3 32.2 0.00 4.78 4.78 69 1012.5
20260902191521 28 180 16.1 24.1 0.00 4.78 4.78 69 1012.6
20260902190520 28 180 16.1 30.6 0.00 4.78 4.78 68 1012.8
20260902185520 28 158 17.7 25.7 0.00 4.78 4.78 67 1012.8
20260902184521 29 158 14.5 22.5 0.00 4.78 4.78 66 1013.1
20260902183540 28 180 12.9 27.4 0.00 4.78 4.78 65 1013.2
20260902182520 28 180 16.1 25.7 0.00 4.78 4.78 66 1013.4
20260902181520 28 158 12.9 27.4 0.00 4.78 4.78 65 1013.3
20260902180520 28 180 14.5 22.5 0.00 4.78 4.78 66 1013.2
20260902175521 28 203 11.3 22.5 0.00 4.78 4.78 68 1013.1
20260902174520 27 203 12.9 22.5 0.00 4.78 4.78 73 1013.3
20260902173520 27 158 17.7 27.4 0.00 4.78 4.78 73 1013.2
20260902172641 26 158 14.5 24.1 0.00 4.78 4.78 75 1013.0
20260902171520 26 180 16.1 25.7 0.00 4.78 4.78 76 1013.1
20260902170520 25 180 16.1 30.6 0.00 4.78 4.78 77 1013.4
20260902165600 25 180 19.3 29.0 0.00 4.78 4.78 81 1013.3
20260902164522 24 158 16.1 27.4 0.00 4.78 4.78 83 1013.2
20260902163520 23 180 14.5 22.5 0.03 4.78 4.78 87 1013.3
20260902162520 21 180 17.7 27.4 0.18 4.78 4.78 90 1013.5
20260902161520 20 180 12.9 20.9 0.66 4.78 4.78 91 1013.7
20260902160540 20 180 11.3 17.7 1.47 4.78 4.78 91 1014.2
20260902155520 20 158 14.5 24.1 2.77 4.78 4.78 92 1014.2
20260902154520 19 180 14.5 25.7 2.92 4.78 4.78 93 1014.7
20260902153520 20 158 16.1 22.5 3.12 4.75 4.75 93 1014.9
20260902152540 20 158 16.1 20.9 3.45 4.60 4.60 93 1015.8
20260902151520 20 203 16.1 25.7 3.63 4.11 4.11 92 1016.9
20260902151053 -17 135 12.9 14.5 2.95 3.30 3.30 93
20260902150021 20 180 12.9 19.3 2.97 3.10 3.10 93 1017.0
20260902145019 20 293 6.4 14.5 1.91 1.96 1.96 93 1017.7
20260902144040 20 248 3.2 4.8 1.73 1.75 1.75 93 1016.0
20260902143022 20 68 6.4 11.3 1.45 1.45 1.45 93 1015.1
20260902142042 21 225 1.6 4.8 0.74 0.74 0.74 93 1016.1
20260902141022 21 23 4.8 9.7 0.36 0.36 0.36 92 1015.4
20260902140021 21 338 4.8 8.0 0.13 0.13 0.13 92 1015.6
20260902135041 21 0.0 3.2 0.05 0.05 0.05 92 1014.9
20260902134042 21 0.0 3.2 0.03 0.03 0.03 92 1014.5
20260902133022 21 45 1.6 8.0 0.00 0.00 0.00 92 1014.8
20260902132021 21 0.0 3.2 0.00 0.00 0.00 92 1014.9
20260902131021 21 68 3.2 8.0 0.00 0.00 0.00 93 1014.8
20260902130021 21 0.0 3.2 0.00 0.00 0.00 93 1014.6
20260902125021 21 68 1.6 6.4 0.00 0.00 0.00 93 1014.4
20260902124021 21 68 1.6 4.8 0.00 0.00 0.00 93 1014.3
20260902123022 21 0.0 3.2 0.00 0.00 0.00 93 1014.5
20260902122022 20 0.0 1.6 0.00 0.00 0.00 93 1014.6
20260902121021 20 0.0 3.2 0.00 0.00 0.00 94 1014.2
20260902120021 20 0.0 3.2 0.00 0.00 0.00 94 1013.8
20260902115021 20 0.0 0.0 0.00 0.00 0.00 94 1014.0
20260902114021 20 0.0 0.0 0.00 0.00 0.00 94 1013.8
20260902113021 20 0.0 3.2 0.00 0.00 0.00 94 1013.8
20260902112021 19 0.0 1.6 0.00 0.00 0.00 94 1013.9
20260902111021 19 0.0 1.6 0.00 0.00 0.00 94 1013.8
20260902110041 19 0.0 0.0 0.00 0.00 0.00 94 1013.7
20260902105021 18 0.0 0.0 0.00 0.00 0.00 94 1013.6
20260902104021 18 0.0 0.0 0.00 0.00 0.00 94 1013.6
20260902103020 18 0.0 0.0 0.00 0.00 0.00 94 1013.7
20260902102020 18 0.0 0.0 0.00 0.00 0.00 94 1014.2